Retour au catalogue

STARLINK-34683

ActifCommunicationsSSO
NORAD 64857·PAYLOAD·🇺🇸 United States

Lancé Jul 19, 2025 depuis Vandenberg Space Force Base

Loading…

Prochains Passages (prochaines 24 heures)

TLE

FraisSource: CelesTrak SupGP

Époque: Sep 14, 2026, 20:30 UTC

1 64857C 25152R   26257.85465278  .00034018  00000+0  10560-2 0  2578
2 64857  97.2839 108.5514 0001832  88.2528 225.4433 15.33421746    11

Suivez STARLINK-34683 en temps réel avec AllMySat

Download on the App Store